Weather History for KBVY - March, 2013

Change the Weather History Date:

Monday, March 4, 2013

  Actual Average Record
Temperature  
Mean Temperature 34 °F -  
Max Temperature 37 °F 37 °F 57 °F (2008)
Min Temperature 30 °F 21 °F 3 °F (2003)
Degree Days  
Heating Degree Days 32    
Moisture  
Dew Point 23 °F    
Average Humidity 65    
Maximum Humidity 82    
Minimum Humidity 51    
Precipitation  
Precipitation 0.00 in - - ()
Sea Level Pressure  
Sea Level Pressure 29.60 in    
Wind  
Wind Speed 14 mph (NW)    
Max Wind Speed 21 mph    
Max Gust Speed 28 mph    
Visibility 9 miles    
Events Snow    
Averages and records for this station are not official NWS values.
T = Trace of Precipitation, MM = Missing Value Source: NWS Daily Summary

Daily Weather History Graph

Daily Weather History Graph

Search for Another Location

Airport or City:

Trip Planner

Search our weather history database for the weather conditions in past years. The results will help you decide how hot, cold, wet, or windy it might be!

Date:

Astronomy

Mar. 04, 2013 Rise Set
Actual Time 6:13 AM EST 5:37 PM EST
Civil Twilight 5:45 AM EST 6:05 PM EST
Nautical Twilight 5:13 AM EST 6:38 PM EST
Astronomical Twilight 4:40 AM EST 7:10 PM EST
Moon 12:25 AM EST (3/4) 10:10 AM EST (3/4)
Length of Visible Light 12h 19m
Length of Day
11h 23m
Waning Gibbous, 52% of the Moon is Illuminated
Mar 4
Waning Gibbous
Mar 4
Last Quarter
Mar 11
New
Mar 19
First Quarter
Mar 27
Full

Hourly Weather History & Observations

Time (EST) Temp. Windchill Dew Point Humidity Pressure Visibility Wind Dir Wind Speed Gust Speed Precip Events Conditions
12:53 AM 34.0 °F 25.5 °F 23.0 °F 64% 29.57 in 10.0 mi NW 11.5 mph 19.6 mph N/A   Overcast
1:53 AM 34.0 °F 25.0 °F 23.0 °F 64% 29.57 in 10.0 mi NW 12.7 mph 20.7 mph N/A   Mostly Cloudy
2:53 AM 33.1 °F 25.5 °F 23.0 °F 66% 29.57 in 10.0 mi WNW 9.2 mph - N/A   Overcast
3:53 AM 33.1 °F 23.4 °F 21.9 °F 64% 29.57 in 10.0 mi WNW 13.8 mph 20.7 mph N/A   Overcast
4:53 AM 30.9 °F 22.2 °F 21.0 °F 67% 29.57 in 10.0 mi WNW 10.4 mph 21.9 mph N/A   Partly Cloudy
5:53 AM 30.0 °F 21.7 °F 21.0 °F 69% 29.58 in 10.0 mi WNW 9.2 mph - N/A   Clear
6:53 AM 30.9 °F 21.7 °F 21.0 °F 67% 29.59 in 10.0 mi WNW 11.5 mph 20.7 mph N/A   Clear
7:53 AM 33.1 °F 22.6 °F 19.9 °F 59% 29.59 in 10.0 mi WNW 16.1 mph 24.2 mph N/A   Clear
8:53 AM 34.0 °F 24.2 °F 19.9 °F 56% 29.58 in 10.0 mi WNW 15.0 mph 24.2 mph N/A   Clear
9:53 AM 36.0 °F 25.6 °F 21.0 °F 55% 29.58 in 10.0 mi NW 18.4 mph 25.3 mph N/A   Clear
10:53 AM 37.0 °F 27.7 °F 21.0 °F 52% 29.57 in 10.0 mi NW 16.1 mph 27.6 mph N/A   Scattered Clouds
11:53 AM 37.9 °F 29.2 °F 21.0 °F 51% 29.57 in 10.0 mi WNW 15.0 mph 23.0 mph N/A   Partly Cloudy
12:53 PM 37.9 °F 29.2 °F 21.0 °F 51% 29.55 in 10.0 mi NW 15.0 mph 23.0 mph N/A   Mostly Cloudy
1:53 PM 37.9 °F 28.2 °F 21.0 °F 51% 29.55 in 10.0 mi WNW 18.4 mph 26.5 mph N/A   Overcast
2:53 PM 37.9 °F 28.5 °F 24.1 °F 57% 29.56 in 10.0 mi WNW 17.3 mph 25.3 mph N/A   Overcast
3:53 PM 37.0 °F 29.3 °F 24.1 °F 59% 29.56 in 10.0 mi WNW 11.5 mph - N/A   Overcast
4:53 PM 36.0 °F 26.7 °F 24.1 °F 62% 29.59 in 10.0 mi NW 15.0 mph 25.3 mph N/A   Overcast
5:53 PM 34.0 °F 23.8 °F 26.1 °F 73% 29.62 in 4.0 mi NW 16.1 mph 24.2 mph 0.00 in Snow Light Snow
6:02 PM 33.8 °F 23.9 °F 26.6 °F 75% 29.63 in 3.0 mi NW 15.0 mph 25.3 mph 0.00 in Snow Light Snow
6:10 PM 33.8 °F 22.2 °F 26.6 °F 75% 29.63 in 2.0 mi NW 20.7 mph 26.5 mph 0.00 in Snow Light Snow
6:51 PM 32.0 °F 21.2 °F 26.6 °F 80% 29.64 in 6.0 mi NW 16.1 mph 23.0 mph 0.00 in Snow Light Snow
6:53 PM 32.0 °F 21.6 °F 27.0 °F 82% 29.64 in 7.0 mi NW 15.0 mph 23.0 mph 0.00 in Snow Light Snow
7:03 PM 32.0 °F 21.6 °F 26.6 °F 80% 29.64 in 9.0 mi WNW 15.0 mph 23.0 mph 0.00 in   Overcast
7:53 PM 33.1 °F 23.4 °F 25.0 °F 72% 29.65 in 10.0 mi NW 13.8 mph 21.9 mph 0.00 in   Overcast
8:53 PM 33.1 °F 23.0 °F 23.0 °F 66% 29.67 in 10.0 mi NW 15.0 mph 24.2 mph N/A   Overcast
9:53 PM 33.1 °F 23.0 °F 21.0 °F 61% 29.68 in 10.0 mi NW 15.0 mph 24.2 mph N/A   Overcast
10:53 PM 30.9 °F 21.2 °F 19.9 °F 64% 29.70 in 10.0 mi NW 12.7 mph 21.9 mph N/A   Scattered Clouds
11:53 PM 32.0 °F 21.2 °F 21.0 °F 64% 29.71 in 10.0 mi NW 16.1 mph 21.9 mph N/A   Overcast